| time (UTC) | temp C | wind direction | speed KPH | gust KPH | rain 1hr cm | rain 24hr cm | rain mn cm | humidity % | barometer mb |
| 20260506121740 | 10 | 300 | 1.6 | 6.4 | 0.03 | 1.75 | 0.23 | 94 | 1005.7 |
| 20260506120735 | 10 | 242 | 3.2 | 12.9 | 0.03 | 1.75 | 0.23 | 94 | 1006.0 |
| 20260506120233 | 10 | 283 | 4.8 | 16.1 | 0.00 | 1.73 | 0.23 | 94 | 1005.8 |
| 20260506114732 | 10 | 247 | 1.6 | 8.0 | 0.03 | 1.73 | 0.23 | 94 | 1005.6 |
| 20260506113733 | 10 | 262 | 3.2 | 12.9 | 0.03 | 1.73 | 0.23 | 94 | 1005.6 |
| 20260506112732 | 10 | 296 | 1.6 | 12.9 | 0.05 | 1.73 | 0.23 | 94 | 1005.4 |
| 20260506112233 | 10 | 268 | 3.2 | 16.1 | 0.05 | 1.73 | 0.23 | 94 | 1005.4 |
| 20260506110732 | 10 | 227 | 3.2 | 14.5 | 0.05 | 1.73 | 0.23 | 94 | 1005.4 |
| 20260506105732 | 10 | 245 | 1.6 | 9.7 | 0.05 | 1.73 | 0.23 | 94 | 1005.4 |
| 20260506104732 | 10 | 257 | 1.6 | 11.3 | 0.05 | 1.70 | 0.20 | 94 | 1005.4 |
| 20260506103732 | 10 | 269 | 3.2 | 12.9 | 0.05 | 1.70 | 0.20 | 94 | 1005.5 |
| 20260506102733 | 10 | 247 | 1.6 | 6.4 | 0.03 | 1.68 | 0.18 | 94 | 1005.4 |
| 20260506101730 | 10 | 271 | 1.6 | 9.7 | 0.05 | 1.68 | 0.18 | 94 | 1005.3 |
| 20260506100728 | 10 | 262 | 0.0 | 6.4 | 0.05 | 1.68 | 0.18 | 94 | 1005.2 |
| 20260506095729 | 10 | 246 | 3.2 | 11.3 | 0.05 | 1.68 | 0.18 | 94 | 1005.2 |
| 20260506094728 | 10 | 234 | 1.6 | 6.4 | 0.03 | 1.65 | 0.15 | 94 | 1005.2 |
| 20260506093729 | 10 | 294 | 0.0 | 1.6 | 0.03 | 1.65 | 0.15 | 94 | 1005.0 |
| 20260506092726 | 10 | 250 | 0.0 | 4.8 | 0.03 | 1.65 | 0.15 | 94 | 1005.1 |
| 20260506091724 | 10 | 225 | 0.0 | 6.4 | 0.00 | 1.65 | 0.15 | 94 | 1005.0 |
| 20260506090723 | 10 | 264 | 0.0 | 4.8 | 0.00 | 1.65 | 0.15 | 94 | 1005.0 |
| 20260506085717 | 10 | 232 | 1.6 | 6.4 | 0.00 | 1.65 | 0.15 | 94 | 1005.0 |
| 20260506084717 | 10 | 257 | 0.0 | 6.4 | 0.00 | 1.65 | 0.15 | 94 | 1004.8 |
| 20260506083716 | 10 | 249 | 0.0 | 3.2 | 0.00 | 1.65 | 0.15 | 94 | 1004.7 |
| 20260506082716 | 10 | 259 | 1.6 | 6.4 | 0.00 | 1.65 | 0.15 | 94 | 1004.8 |
| 20260506081717 | 10 | 294 | 1.6 | 11.3 | 0.00 | 1.65 | 0.15 | 94 | 1004.8 |
| 20260506080716 | 10 | 265 | 1.6 | 8.0 | 0.00 | 1.65 | 0.15 | 94 | 1004.7 |
| 20260506072716 | 10 | 235 | 0.0 | 0.0 | 0.00 | 1.65 | 0.15 | 94 | 1004.7 |
| 20260506071717 | 9 | 229 | 0.0 | 3.2 | 0.00 | 1.65 | 0.15 | 94 | 1004.6 |
| 20260506070716 | 9 | 240 | 0.0 | 4.8 | 0.03 | 1.65 | 0.15 | 94 | 1004.5 |
| 20260506061717 | 9 | 244 | 0.0 | 4.8 | 0.03 | 1.65 | 0.15 | 94 | 1004.4 |
| 20260506061218 | 9 | 270 | 0.0 | 3.2 | 0.03 | 1.63 | 0.13 | 94 | 1004.4 |
| 20260506050714 | 9 | 264 | 0.0 | 3.2 | 0.05 | 1.60 | 0.10 | 94 | 1004.4 |
| 20260506044707 | 9 | 246 | 0.0 | 4.8 | 0.00 | 1.55 | 0.05 | 94 | 1004.5 |
| 20260506043704 | 9 | 249 | 0.0 | 0.0 | 0.00 | 1.55 | 0.05 | 94 | 1004.5 |
| 20260506042704 | 9 | 250 | 0.0 | 4.8 | 0.00 | 1.55 | 0.05 | 94 | 1004.5 |
| 20260506041705 | 9 | 249 | 0.0 | 4.8 | 0.00 | 1.55 | 0.05 | 94 | 1004.5 |
| 20260506040704 | 9 | 265 | 0.0 | 6.4 | 0.00 | 1.55 | 0.05 | 94 | 1004.5 |
| 20260506035704 | 9 | 235 | 0.0 | 4.8 | 0.00 | 1.55 | 0.05 | 94 | 1004.5 |
| 20260506034702 | 9 | 242 | 0.0 | 0.0 | 0.00 | 1.55 | 0.05 | 94 | 1004.6 |
| 20260506033702 | 9 | 252 | 0.0 | 0.0 | 0.00 | 1.55 | 0.05 | 94 | 1004.5 |
| 20260506033203 | 9 | 265 | 0.0 | 0.0 | 0.00 | 1.55 | 0.05 | 94 | 1004.6 |
| 20260506031700 | 9 | 265 | 0.0 | 0.0 | 0.00 | 1.55 | 0.05 | 94 | 1004.6 |
| 20260506030700 | 9 | 255 | 0.0 | 1.6 | 0.00 | 1.55 | 0.05 | 94 | 1004.6 |
| 20260506030159 | 9 | 250 | 0.0 | 3.2 | 0.00 | 1.55 | 0.05 | 94 | 1004.7 |
| 20260506024658 | 9 | 273 | 0.0 | 4.8 | 0.00 | 1.55 | 0.05 | 94 | 1004.8 |
| 20260506023659 | 9 | 242 | 0.0 | 1.6 | 0.03 | 1.55 | 0.05 | 94 | 1004.8 |
| 20260506022658 | 9 | 270 | 0.0 | 6.4 | 0.03 | 1.55 | 0.05 | 94 | 1004.8 |
| 20260506021658 | 9 | 254 | 0.0 | 4.8 | 0.03 | 1.55 | 0.05 | 94 | 1004.9 |
| 20260506020658 | 9 | 270 | 1.6 | 9.7 | 0.03 | 1.55 | 0.05 | 93 | 1005.0 |
| 20260506015658 | 9 | 271 | 1.6 | 11.3 | 0.03 | 1.55 | 0.05 | 94 | 1005.1 |
| 20260506014658 | 9 | 281 | 1.6 | 9.7 | 0.03 | 1.55 | 0.05 | 94 | 1005.1 |
| 20260506013658 | 9 | 228 | 1.6 | 9.7 | 0.00 | 1.52 | 0.03 | 94 | 1005.2 |
| 20260506012659 | 9 | 261 | 1.6 | 12.9 | 0.00 | 1.52 | 0.03 | 94 | 1005.3 |
| 20260506012200 | 9 | 257 | 0.0 | 4.8 | 0.00 | 1.52 | 0.03 | 94 | 1005.3 |
| 20260506010658 | 9 | 251 | 0.0 | 6.4 | 0.00 | 1.52 | 0.03 | 94 | 1005.3 |
| 20260506005658 | 9 | 242 | 1.6 | 8.0 | 0.00 | 1.52 | 0.03 | 93 | 1005.4 |
| 20260506005159 | 9 | 257 | 1.6 | 4.8 | 0.00 | 1.52 | 0.03 | 93 | 1005.3 |
| 20260506003657 | 9 | 244 | 1.6 | 11.3 | 0.00 | 1.52 | 0.03 | 93 | 1005.4 |
| 20260506002652 | 10 | 283 | 0.0 | 8.0 | 0.00 | 1.52 | 0.03 | 93 | 1005.3 |
| 20260506001653 | 10 | 256 | 1.6 | 11.3 | 0.00 | 1.52 | 0.03 | 93 | 1005.5 |
| 20260506000652 | 10 | 228 | 1.6 | 12.9 | 0.00 | 1.52 | 0.03 | 93 | 1005.5 |
| 20260505235652 | 10 | 264 | 1.6 | 11.3 | 0.00 | 1.52 | 0.03 | 93 | 1005.6 |
| 20260505234652 | 10 | 273 | 1.6 | 8.0 | 0.00 | 1.52 | 0.03 | 93 | 1005.8 |
| 20260505233652 | 10 | 286 | 1.6 | 8.0 | 0.00 | 1.52 | 0.03 | 93 | 1005.9 |
| 20260505232652 | 10 | 213 | 0.0 | 6.4 | 0.00 | 1.52 | 0.03 | 93 | 1005.9 |
| 20260505231652 | 10 | 287 | 1.6 | 6.4 | 0.00 | 1.52 | 0.03 | 93 | 1005.8 |
| 20260505230655 | 10 | 265 | 1.6 | 9.7 | 0.00 | 1.52 | 0.03 | 93 | 1005.9 |
| 20260505230146 | 10 | 251 | 1.6 | 6.4 | 0.03 | 1.52 | 0.03 | 93 | 1005.9 |
| 20260505224646 | 10 | 254 | 1.6 | 6.4 | 0.03 | 1.52 | 0.03 | 93 | 1006.0 |
| 20260505224146 | 10 | 240 | 1.6 | 6.4 | 0.03 | 1.52 | 0.03 | 93 | 1006.1 |
| 20260505222646 | 10 | 226 | 1.6 | 6.4 | 0.03 | 1.52 | 0.03 | 93 | 1006.1 |
| 20260505221646 | 10 | 234 | 1.6 | 8.0 | 0.05 | 1.52 | 0.03 | 93 | 1006.0 |
| 20260505220646 | 10 | 232 | 1.6 | 11.3 | 0.05 | 1.52 | 0.03 | 93 | 1006.3 |
| 20260505215646 | 10 | 244 | 1.6 | 8.0 | 0.03 | 1.50 | 1.50 | 93 | 1006.0 |
| 20260505214645 | 10 | 236 | 1.6 | 6.4 | 0.05 | 1.50 | 1.50 | 93 | 1006.3 |
| 20260505213645 | 10 | 257 | 1.6 | 6.4 | 0.08 | 1.50 | 1.50 | 93 | 1006.4 |
| 20260505212638 | 10 | 240 | 1.6 | 6.4 | 0.10 | 1.50 | 1.50 | 93 | 1006.3 |
| 20260505211639 | 10 | 233 | 3.2 | 8.0 | 0.15 | 1.47 | 1.47 | 93 | 1006.3 |
| 20260505210639 | 10 | 218 | 1.6 | 6.4 | 0.18 | 1.47 | 1.47 | 93 | 1006.5 |
| 20260505205639 | 11 | 232 | 3.2 | 8.0 | 0.23 | 1.47 | 1.47 | 93 | 1006.4 |
| 20260505204639 | 11 | 246 | 3.2 | 12.9 | 0.25 | 1.45 | 1.45 | 93 | 1006.5 |
| 20260505203639 | 11 | 242 | 3.2 | 14.5 | 0.28 | 1.42 | 1.42 | 93 | 1006.5 |
| 20260505202638 | 11 | 250 | 3.2 | 9.7 | 0.30 | 1.40 | 1.40 | 93 | 1006.6 |
| 20260505201638 | 11 | 250 | 3.2 | 9.7 | 0.28 | 1.35 | 1.35 | 93 | 1006.5 |
| 20260505200638 | 11 | 222 | 3.2 | 8.0 | 0.30 | 1.30 | 1.30 | 93 | 1006.5 |
| 20260505195633 | 11 | 205 | 1.6 | 6.4 | 0.25 | 1.24 | 1.24 | 92 | 1006.4 |
| 20260505194632 | 11 | 222 | 1.6 | 11.3 | 0.28 | 1.17 | 1.17 | 93 | 1006.3 |
| 20260505194134 | 11 | 240 | 3.2 | 8.0 | 0.36 | 1.14 | 1.14 | 92 | 1006.1 |
| 20260505193137 | 11 | 229 | 3.2 | 6.4 | 0.33 | 1.09 | 1.09 | 92 | 1006.1 |
| 20260505191633 | 12 | 225 | 1.6 | 8.0 | 0.33 | 1.07 | 1.07 | 92 | 1006.1 |
| 20260505190633 | 12 | 276 | 1.6 | 6.4 | 0.28 | 0.99 | 0.99 | 93 | 1006.0 |
| 20260505185633 | 12 | 234 | 0.0 | 0.0 | 0.28 | 0.99 | 0.99 | 92 | 1006.0 |
| 20260505184632 | 12 | 233 | 0.0 | 3.2 | 0.23 | 0.89 | 0.89 | 92 | 1006.0 |
| 20260505183633 | 12 | 239 | 3.2 | 14.5 | 0.18 | 0.79 | 0.79 | 92 | 1006.0 |
| 20260505182632 | 12 | 258 | 0.0 | 3.2 | 0.18 | 0.76 | 0.76 | 92 | 1006.0 |
| 20260505181633 | 12 | 263 | 1.6 | 11.3 | 0.15 | 0.74 | 0.74 | 92 | 1006.0 |
| 20260505180632 | 12 | 229 | 3.2 | 11.3 | 0.15 | 0.71 | 0.71 | 92 | 1006.0 |
| 20260505175633 | 12 | 286 | 3.2 | 11.3 | 0.15 | 0.71 | 0.71 | 92 | 1006.3 |
| 20260505175133 | 12 | 216 | 3.2 | 12.9 | 0.13 | 0.66 | 0.66 | 92 | 1006.1 |
| 20260505173632 | 12 | 88 | 4.8 | 12.9 | 0.05 | 0.61 | 0.61 | 92 | 1006.0 |
| 20260505173133 | 12 | 120 | 0.0 | 4.8 | 0.05 | 0.58 | 0.58 | 92 | 1006.3 |
| 20260505171633 | 12 | 140 | 3.2 | 9.7 | 0.15 | 0.58 | 0.58 | 92 | 1006.3 |
| 20260505171134 | 12 | 82 | 4.8 | 11.3 | 0.23 | 0.56 | 0.56 | 92 | 1006.3 |
| 20260505165632 | 12 | 82 | 3.2 | 8.0 | 0.30 | 0.56 | 0.56 | 92 | 1006.3 |
| 20260505164631 | 12 | 86 | 3.2 | 6.4 | 0.30 | 0.53 | 0.53 | 91 | 1006.4 |
| 20260505163632 | 12 | 65 | 1.6 | 6.4 | 0.33 | 0.53 | 0.53 | 91 | 1006.5 |
| 20260505162632 | 13 | 80 | 3.2 | 6.4 | 0.33 | 0.51 | 0.51 | 91 | 1006.6 |
| 20260505161633 | 13 | 44 | 3.2 | 9.7 | 0.28 | 0.43 | 0.43 | 90 | 1006.5 |
| 20260505160632 | 13 | 81 | 3.2 | 6.4 | 0.23 | 0.36 | 0.33 | 90 | 1006.6 |
| 20260505152626 | 13 | 49 | 0.0 | 3.2 | 0.13 | 0.20 | 0.18 | 88 | 1006.7 |
| 20260505151624 | 13 | 308 | 0.0 | 3.2 | 0.08 | 0.15 | 0.15 | 87 | 1006.7 |
| 20260505150625 | 14 | 337 | 0.0 | 3.2 | 0.05 | 0.13 | 0.10 | 87 | 1006.7 |
| 20260505150123 | 14 | 333 | 0.0 | 4.8 | 0.03 | 0.10 | 0.08 | 87 | 1006.8 |
| 20260505140620 | 14 | 302 | 0.0 | 4.8 | 0.05 | 0.13 | 0.05 | 86 | 1007.1 |
| 20260505130113 | 15 | 331 | 1.6 | 9.7 | 0.00 | 0.05 | 0.00 | 80 | 1007.5 |
| 20260505124608 | 15 | 84 | 1.6 | 8.0 | 0.00 | 0.05 | 0.00 | 81 | 1007.6 |
| 20260505123609 | 15 | 5 | 1.6 | 9.7 | 0.00 | 0.05 | 0.00 | 82 | 1007.7 |